Location: Stuttgart
(48.8069°N, 9.1544°E)
Time: 02:37:27
(UTC+02:00)

ISS - Pass Details

Date: 14 May 2021
Orbit: 417 x 422 km, 51.6° (Epoch: 15 June)

Event Time Altitude Azimuth Distance (km) Brightness Sun altitude
Exits shadow 01:17:45 50° 27° (NNE) 547 -2.9 -22.6°
Drops below altitude 10° 01:20:37 10° 70° (ENE) 1,509 -0.7 -22.6°
Sets 01:22:45 0° 75° (ENE) 2,376 0.3 -22.6°
